Time,TemperatureF,DewpointF,PressureIn,WindDirection,WindDirectionDegrees,WindSpeedMPH,WindSpeedGustMPH,Humidity,HourlyPrecipIn,Conditions,Clouds,dailyrainin,SoftwareType,DateUTC
2013-08-17 00:11:00,72.4,63.0,29.96,West,275,4.0,11.0,72,0.00,,,0.00,weatherlink.com 1.10,2013-08-17 07:11:00,
2013-08-17 00:26:00,72.1,63.0,29.96,WSW,247,5.0,12.0,73,0.00,,,0.00,weatherlink.com 1.10,2013-08-17 07:26:00,
2013-08-17 00:41:00,71.7,63.0,29.96,WSW,240,5.0,9.0,75,0.00,,,0.00,weatherlink.com 1.10,2013-08-17 07:41:00,
2013-08-17 00:56:00,71.2,63.0,29.97,WSW,240,2.0,8.0,75,0.00,,,0.00,weatherlink.com 1.10,2013-08-17 07:56:00,
2013-08-17 01:11:00,70.6,63.0,29.97,West,263,7.0,9.0,76,0.00,,,0.00,weatherlink.com 1.10,2013-08-17 08:11:00,
2013-08-17 01:26:00,70.3,63.0,29.97,SW,220,1.0,7.0,78,0.00,,,0.00,weatherlink.com 1.10,2013-08-17 08:26:00,
2013-08-17 01:42:00,69.7,63.0,29.97,SSW,199,3.0,8.0,79,0.00,,,0.00,weatherlink.com 1.10,2013-08-17 08:42:00,
2013-08-17 01:57:00,69.7,63.0,29.97,SW,228,2.0,5.0,78,0.00,,,0.00,weatherlink.com 1.10,2013-08-17 08:57:00,
2013-08-17 02:12:00,69.2,62.0,29.97,NW,306,3.0,7.0,78,0.00,,,0.00,weatherlink.com 1.10,2013-08-17 09:12:00,
2013-08-17 02:27:00,69.1,62.0,29.97,NNW,327,1.0,6.0,77,0.00,,,0.00,weatherlink.com 1.10,2013-08-17 09:27:00,
2013-08-17 02:42:00,69.0,62.0,29.97,WNW,286,1.0,10.0,77,0.00,,,0.00,weatherlink.com 1.10,2013-08-17 09:42:00,
2013-08-17 02:57:00,68.4,61.0,29.97,WNW,283,5.0,9.0,76,0.00,,,0.00,weatherlink.com 1.10,2013-08-17 09:57:00,
2013-08-17 03:12:00,68.0,61.0,29.97,WNW,286,6.0,9.0,77,0.00,,,0.00,weatherlink.com 1.10,2013-08-17 10:12:00,
2013-08-17 03:27:00,67.6,60.0,29.98,SW,230,3.0,8.0,77,0.00,,,0.00,weatherlink.com 1.10,2013-08-17 10:27:00,
2013-08-17 03:42:00,67.7,60.0,29.98,West,281,7.0,11.0,76,0.00,,,0.00,weatherlink.com 1.10,2013-08-17 10:42:00,
2013-08-17 03:57:00,67.6,60.0,29.98,West,276,3.0,10.0,76,0.00,,,0.00,weatherlink.com 1.10,2013-08-17 10:57:00,
2013-08-17 04:12:00,67.4,60.0,29.98,West,265,3.0,8.0,76,0.00,,,0.00,weatherlink.com 1.10,2013-08-17 11:12:00,
2013-08-17 04:27:00,66.9,59.0,29.98,West,277,3.0,8.0,76,0.00,,,0.00,weatherlink.com 1.10,2013-08-17 11:27:00,
2013-08-17 04:42:00,66.7,59.0,29.98,WSW,249,4.0,9.0,76,0.00,,,0.00,weatherlink.com 1.10,2013-08-17 11:42:00,
2013-08-17 04:57:00,66.3,59.0,29.98,SW,231,4.0,10.0,76,0.00,,,0.00,weatherlink.com 1.10,2013-08-17 11:57:00,
2013-08-17 05:12:00,66.1,58.0,29.98,WNW,296,2.0,10.0,76,0.00,,,0.00,weatherlink.com 1.10,2013-08-17 12:12:00,
2013-08-17 05:27:00,65.9,59.0,29.98,West,266,6.0,10.0,77,0.00,,,0.00,weatherlink.com 1.10,2013-08-17 12:27:00,
2013-08-17 05:42:00,65.8,58.0,29.99,West,268,8.0,15.0,76,0.00,,,0.00,weatherlink.com 1.10,2013-08-17 12:42:00,
2013-08-17 05:57:00,65.2,57.0,29.99,WSW,251,4.0,12.0,76,0.00,,,0.00,weatherlink.com 1.10,2013-08-17 12:57:00,
2013-08-17 06:12:00,65.0,57.0,30.00,WSW,257,8.0,12.0,76,0.00,,,0.00,weatherlink.com 1.10,2013-08-17 13:12:00,
2013-08-17 06:27:00,64.8,57.0,30.00,WNW,282,6.0,12.0,76,0.00,,,0.00,weatherlink.com 1.10,2013-08-17 13:27:00,
2013-08-17 06:42:00,64.7,57.0,30.01,WNW,298,5.0,12.0,75,0.00,,,0.00,weatherlink.com 1.10,2013-08-17 13:42:00,
2013-08-17 06:57:00,64.8,57.0,30.01,West,268,7.0,12.0,75,0.00,,,0.00,weatherlink.com 1.10,2013-08-17 13:57:00,
2013-08-17 07:12:00,65.0,57.0,30.02,WSW,242,4.0,11.0,75,0.00,,,0.00,weatherlink.com 1.10,2013-08-17 14:12:00,
2013-08-17 07:27:00,65.2,57.0,30.02,WNW,291,3.0,12.0,74,0.00,,,0.00,weatherlink.com 1.10,2013-08-17 14:27:00,
2013-08-17 07:42:00,65.9,57.0,30.02,WSW,253,6.0,10.0,74,0.00,,,0.00,weatherlink.com 1.10,2013-08-17 14:42:00,
2013-08-17 07:57:00,66.5,58.0,30.02,West,270,6.0,9.0,73,0.00,,,0.00,weatherlink.com 1.10,2013-08-17 14:57:00,
2013-08-17 08:12:00,67.6,58.0,30.02,WSW,237,5.0,11.0,71,0.00,,,0.00,weatherlink.com 1.10,2013-08-17 15:12:00,
2013-08-17 08:27:00,68.8,57.0,30.01,WNW,289,4.0,10.0,67,0.00,,,0.00,weatherlink.com 1.10,2013-08-17 15:27:00,
2013-08-17 08:42:00,69.8,58.0,30.02,West,281,5.0,8.0,66,0.00,,,0.00,weatherlink.com 1.10,2013-08-17 15:42:00,
2013-08-17 08:57:00,70.4,58.0,30.02,SW,216,5.0,13.0,66,0.00,,,0.00,weatherlink.com 1.10,2013-08-17 15:57:00,
2013-08-17 09:12:00,70.3,58.0,30.01,WNW,296,9.0,13.0,65,0.00,,,0.00,weatherlink.com 1.10,2013-08-17 16:12:00,
2013-08-17 09:27:00,70.8,59.0,30.01,SSW,210,5.0,14.0,66,0.00,,,0.00,weatherlink.com 1.10,2013-08-17 16:27:00,
2013-08-17 09:42:00,71.8,58.0,30.01,SW,232,3.0,15.0,63,0.00,,,0.00,weatherlink.com 1.10,2013-08-17 16:42:00,
2013-08-17 09:57:00,72.0,59.0,30.01,West,263,7.0,12.0,63,0.00,,,0.00,weatherlink.com 1.10,2013-08-17 16:57:00,
2013-08-17 10:12:00,72.9,58.0,30.00,SW,231,3.0,15.0,60,0.00,,,0.00,weatherlink.com 1.10,2013-08-17 17:12:00,
2013-08-17 10:27:00,73.9,59.0,30.00,SW,233,4.0,11.0,59,0.00,,,0.00,weatherlink.com 1.10,2013-08-17 17:27:00,
2013-08-17 10:43:00,74.9,59.0,30.00,SSW,206,3.0,12.0,57,0.00,,,0.00,weatherlink.com 1.10,2013-08-17 17:43:00,
2013-08-17 10:58:00,75.2,58.0,30.00,NW,311,10.0,17.0,56,0.00,,,0.00,weatherlink.com 1.10,2013-08-17 17:58:00,
2013-08-17 11:13:00,74.9,59.0,29.99,West,261,6.0,16.0,58,0.00,,,0.00,weatherlink.com 1.10,2013-08-17 18:13:00,
2013-08-17 11:28:00,76.2,59.0,30.00,WSW,237,4.0,16.0,55,0.00,,,0.00,weatherlink.com 1.10,2013-08-17 18:28:00,
2013-08-17 11:43:00,76.0,59.0,29.99,WSW,254,2.0,14.0,55,0.00,,,0.00,weatherlink.com 1.10,2013-08-17 18:43:00,
2013-08-17 11:58:00,77.4,59.0,29.98,West,268,6.0,14.0,53,0.00,,,0.00,weatherlink.com 1.10,2013-08-17 18:58:00,
2013-08-17 12:13:00,78.2,59.0,29.98,West,268,12.0,13.0,51,0.00,,,0.00,weatherlink.com 1.10,2013-08-17 19:13:00,
2013-08-17 12:28:00,79.3,58.0,29.98,WSW,251,7.0,15.0,48,0.00,,,0.00,weatherlink.com 1.10,2013-08-17 19:28:00,
2013-08-17 12:43:00,80.0,59.0,29.98,West,270,4.0,18.0,48,0.00,,,0.00,weatherlink.com 1.10,2013-08-17 19:43:00,
2013-08-17 12:58:00,78.3,58.0,29.97,NW,318,2.0,11.0,49,0.00,,,0.00,weatherlink.com 1.10,2013-08-17 19:58:00,
2013-08-17 13:13:00,81.1,59.0,29.97,WSW,255,7.0,11.0,47,0.00,,,0.00,weatherlink.com 1.10,2013-08-17 20:13:00,
2013-08-17 13:28:00,82.3,58.0,29.97,WSW,251,3.0,15.0,43,0.00,,,0.00,weatherlink.com 1.10,2013-08-17 20:28:00,
2013-08-17 13:43:00,83.1,58.0,29.96,NW,322,3.0,12.0,42,0.00,,,0.00,weatherlink.com 1.10,2013-08-17 20:43:00,
2013-08-17 13:58:00,83.2,59.0,29.97,West,259,1.0,13.0,44,0.00,,,0.00,weatherlink.com 1.10,2013-08-17 20:58:00,
2013-08-17 14:13:00,83.5,59.0,29.96,West,277,9.0,14.0,44,0.00,,,0.00,weatherlink.com 1.10,2013-08-17 21:13:00,
2013-08-17 14:28:00,82.7,59.0,29.96,WSW,253,4.0,13.0,44,0.00,,,0.00,weatherlink.com 1.10,2013-08-17 21:28:00,
2013-08-17 14:43:00,83.5,59.0,29.95,WSW,240,5.0,13.0,44,0.00,,,0.00,weatherlink.com 1.10,2013-08-17 21:43:00,
2013-08-17 14:58:00,82.2,59.0,29.95,WSW,254,6.0,13.0,45,0.00,,,0.00,weatherlink.com 1.10,2013-08-17 21:58:00,
2013-08-17 15:13:00,82.9,59.0,29.95,WSW,249,7.0,15.0,44,0.00,,,0.00,weatherlink.com 1.10,2013-08-17 22:13:00,
2013-08-17 15:28:00,82.9,59.0,29.94,WNW,292,8.0,13.0,45,0.00,,,0.00,weatherlink.com 1.10,2013-08-17 22:28:00,
2013-08-17 15:43:00,83.0,60.0,29.94,SW,224,8.0,12.0,46,0.00,,,0.00,weatherlink.com 1.10,2013-08-17 22:43:00,
2013-08-17 15:58:00,82.1,59.0,29.94,WSW,243,9.0,14.0,46,0.00,,,0.00,weatherlink.com 1.10,2013-08-17 22:58:00,
2013-08-17 16:13:00,82.6,59.0,29.93,SW,222,6.0,14.0,45,0.00,,,0.00,weatherlink.com 1.10,2013-08-17 23:13:00,
2013-08-17 16:28:00,82.7,60.0,29.93,WSW,243,8.0,14.0,47,0.00,,,0.00,weatherlink.com 1.10,2013-08-17 23:28:00,
2013-08-17 16:43:00,82.0,59.0,29.93,WSW,237,3.0,13.0,46,0.00,,,0.00,weatherlink.com 1.10,2013-08-17 23:43:00,
2013-08-17 16:58:00,82.3,60.0,29.93,SW,222,6.0,12.0,47,0.00,,,0.00,weatherlink.com 1.10,2013-08-17 23:58:00,
2013-08-17 17:13:00,81.5,59.0,29.93,West,279,9.0,11.0,46,0.00,,,0.00,weatherlink.com 1.10,2013-08-18 00:13:00,
2013-08-17 17:28:00,80.8,59.0,29.93,South,190,4.0,18.0,47,0.00,,,0.00,weatherlink.com 1.10,2013-08-18 00:28:00,
2013-08-17 17:43:00,80.0,59.0,29.93,WSW,255,9.0,12.0,48,0.00,,,0.00,weatherlink.com 1.10,2013-08-18 00:43:00,
2013-08-17 17:58:00,79.6,59.0,29.93,SW,218,5.0,11.0,49,0.00,,,0.00,weatherlink.com 1.10,2013-08-18 00:58:00,
2013-08-17 18:13:00,79.3,59.0,29.94,SSW,211,4.0,10.0,50,0.00,,,0.00,weatherlink.com 1.10,2013-08-18 01:13:00,
2013-08-17 18:28:00,78.8,59.0,29.93,WSW,247,6.0,14.0,50,0.00,,,0.00,weatherlink.com 1.10,2013-08-18 01:28:00,
2013-08-17 18:43:00,78.6,58.0,29.94,West,262,3.0,11.0,49,0.00,,,0.00,weatherlink.com 1.10,2013-08-18 01:43:00,
2013-08-17 18:58:00,78.6,57.0,29.94,SW,218,4.0,13.0,47,0.00,,,0.00,weatherlink.com 1.10,2013-08-18 01:58:00,
2013-08-17 19:13:00,78.2,57.0,29.94,SSW,211,4.0,11.0,49,0.00,,,0.00,weatherlink.com 1.10,2013-08-18 02:13:00,
2013-08-17 19:28:00,77.6,57.0,29.95,West,280,4.0,12.0,49,0.00,,,0.00,weatherlink.com 1.10,2013-08-18 02:28:00,
2013-08-17 19:43:00,77.1,56.0,29.94,WNW,292,5.0,9.0,49,0.00,,,0.00,weatherlink.com 1.10,2013-08-18 02:43:00,
2013-08-17 19:58:00,76.5,57.0,29.95,WSW,251,1.0,9.0,51,0.00,,,0.00,weatherlink.com 1.10,2013-08-18 02:58:00,
2013-08-17 20:13:00,76.0,56.0,29.96,NW,314,6.0,8.0,51,0.00,,,0.00,weatherlink.com 1.10,2013-08-18 03:13:00,
2013-08-17 20:28:00,75.3,56.0,29.96,NNE,17,2.0,3.0,52,0.00,,,0.00,weatherlink.com 1.10,2013-08-18 03:28:00,
2013-08-17 20:43:00,74.3,55.0,29.97,WSW,258,0.0,4.0,52,0.00,,,0.00,weatherlink.com 1.10,2013-08-18 03:43:00,
2013-08-17 20:58:00,74.1,55.0,29.97,WNW,291,2.0,5.0,51,0.00,,,0.00,weatherlink.com 1.10,2013-08-18 03:58:00,
2013-08-17 21:13:00,74.3,54.0,29.97,NW,307,2.0,5.0,50,0.00,,,0.00,weatherlink.com 1.10,2013-08-18 04:13:00,
2013-08-17 21:28:00,74.1,53.0,29.98,NW,304,2.0,5.0,48,0.00,,,0.00,weatherlink.com 1.10,2013-08-18 04:28:00,
2013-08-17 21:43:00,74.5,53.0,29.98,West,264,0.0,4.0,47,0.00,,,0.00,weatherlink.com 1.10,2013-08-18 04:43:00,
2013-08-17 21:58:00,73.3,54.0,29.99,WNW,289,1.0,6.0,51,0.00,,,0.00,weatherlink.com 1.10,2013-08-18 04:58:00,
2013-08-17 22:13:00,71.6,53.0,29.99,North,7,1.0,3.0,52,0.00,,,0.00,weatherlink.com 1.10,2013-08-18 05:13:00,
2013-08-17 22:28:00,70.1,54.0,29.99,North,3,0.0,5.0,57,0.00,,,0.00,weatherlink.com 1.10,2013-08-18 05:28:00,
2013-08-17 22:43:00,70.0,54.0,29.98,WSW,244,1.0,2.0,57,0.00,,,0.00,weatherlink.com 1.10,2013-08-18 05:43:00,
2013-08-17 22:58:00,69.7,56.0,29.98,WSW,248,6.0,6.0,62,0.00,,,0.00,weatherlink.com 1.10,2013-08-18 05:58:00,
2013-08-17 23:13:00,70.3,59.0,29.98,WNW,298,9.0,11.0,67,0.00,,,0.00,weatherlink.com 1.10,2013-08-18 06:13:00,
2013-08-17 23:28:00,70.4,59.0,29.99,WNW,295,5.0,14.0,67,0.00,,,0.00,weatherlink.com 1.10,2013-08-18 06:28:00,
2013-08-17 23:43:00,70.1,59.0,29.99,WNW,301,4.0,16.0,68,0.00,,,0.00,weatherlink.com 1.10,2013-08-18 06:43:00,
2013-08-17 23:58:00,69.7,59.0,30.00,WNW,299,8.0,12.0,69,0.00,,,0.00,weatherlink.com 1.10,2013-08-18 06:58:00,